This is the latest recevied weather packets stored in our database for station/object SP9SOY-2. If no packets are shown the sender has not sent any weather packets the latest 10 day(s).
| Time | Temp. | Humidity | Pressure | Rain* | Wind** | Luminosity | Snow |
|---|---|---|---|---|---|---|---|
| 1777791429 | 17.78° C | 18% | - | - | - | 360 W/m² | - |
| 1777789630 | 16.67° C | 19% | - | - | - | 235 W/m² | - |
| 1777787834 | 15.56° C | 19% | - | - | - | 110 W/m² | - |
| 1777786031 | 15.56° C | 22% | - | - | - | 55 W/m² | - |
| 1777759035 | 11.67° C | 18% | - | - | - | 0 W/m² | - |
| 1777757232 | 11.67° C | 18% | - | - | - | 0 W/m² | - |
| 1777755434 | 12.78° C | 18% | - | - | - | 0 W/m² | - |
| 1777753631 | 13.33° C | 17% | - | - | - | 0 W/m² | - |
| 1777751837 | 13.89° C | 17% | - | - | - | 0 W/m² | - |
| 1777750036 | 14.44° C | 17% | - | - | - | 0 W/m² | - |
| 1777748230 | 15° C | 17% | - | - | - | 0 W/m² | - |
| 1777746429 | 15.56° C | 17% | - | - | - | 7 W/m² | - |
| 1777744629 | 16.67° C | 16% | - | - | - | 14 W/m² | - |
| 1777742834 | 17.22° C | 16% | - | - | - | 20 W/m² | - |
| 1777741034 | 17.78° C | 15% | - | - | - | 26 W/m² | - |
| 1777739235 | 18.33° C | 15% | - | - | - | 146 W/m² | - |
| 1777737435 | 18.33° C | 15% | - | - | - | 266 W/m² | - |
| 1777735634 | 18.89° C | 15% | - | - | - | 400 W/m² | - |
| 1777733835 | 18.89° C | 15% | - | - | - | 534 W/m² | - |
| 1777732035 | 18.89° C | 15% | - | - | - | 825 W/m² | - |
| 1777730229 | 18.89° C | 15% | - | - | - | 1116 W/m² | - |
| 1777728429 | 18.89° C | 15% | - | - | - | 1044 W/m² | - |
| 1777726631 | 18.89° C | 15% | - | - | - | 972 W/m² | - |
| 1777724833 | 18.33° C | 15% | - | - | - | 972 W/m² | - |
| 1777721234 | 18.89° C | 15% | - | - | - | 1044 W/m² | - |
* Rain since midnight (hover to see other rain measurements)
** Current wind speed in m/s (hover to see current wind gust speed)